{"data":{"norad_id":64149,"intl_designator":"2025-112D","name":"STARLINK-33924","alt_names":[],"object_type":"PAYLOAD","status":"ACTIVE","operator":null,"country":"US","launch_date":"2025-05-27","launch_site_code":"AFWTR","launch_vehicle":null,"mission":null,"orbit_class":"UNKNOWN","rcs_meters":null,"size_class":null,"mass_kg":null,"dimensions":null,"purposes":["comms"],"wikipedia_slug":null,"has_3d_model":false,"image_url":null,"decayed_at":null,"tle_current":{"epoch":"2026-05-25T02:42:08.728128Z","epoch_age_seconds":64764,"freshness":"FRESH","line1":"1 64149U 25112D   26145.11260102  .00002840  00000+0  20075-3 0  9996","line2":"2 64149  97.4493 196.4175 0001692 132.2043 227.9328 15.05657551 54808","mean_motion":15.05657551,"eccentricity":0.0001692,"inclination_deg":97.4493,"raan_deg":196.4175,"arg_perigee_deg":132.2043,"mean_anomaly_deg":227.9328,"bstar":0.00020075,"rev_number":5480,"period_min":95.639277274146,"perigee_km":548.31583804335,"apogee_km":550.66014634071,"semimajor_km":6927.624992192,"source":"CELESTRAK","updated_at":"2026-05-25T13:38:20.302171Z"}}}